Location: Wells
(51.2093°N, 2.6446°W)
Time: 07:03:06
(UTC+01:00)

PCSat - Pass Details

Date: 16 March 2026
Orbit: 780 x 790 km, 67.1° (Epoch: 13 April)

Event Time Altitude Azimuth Distance (km) Brightness Sun altitude
Rises 05:02:50 0° 321° (NW) 3,296 12.5 -13.2°
Reaches altitude 10° 05:05:36 10° 333° (NNW) 2,365 11.9 -12.8°
Maximum altitude 05:10:16 29° 33° (NNE) 1,439 11.4 -12.1°
Drops below altitude 10° 05:14:56 10° 92° (E) 2,357 13.4 -11.4°
Sets 05:17:39 0° 104° (ESE) 3,282 14.1 -11.0°
